Location: Azul
(36.7830°S, 59.8500°W)
Time: 11:24:23
(UTC-03:00)

BEESAT 3 - Pass Details

Date: 27 October 2021
Orbit: 477 x 511 km, 64.9° (Epoch: 28 November)

Event Time Altitude Azimuth Distance (km) Brightness Sun altitude
Rises 03:58:16 0° 209° (SSW) 2,572 ? -22.4°
Reaches altitude 10° 04:00:26 10° 208° (SSW) 1,682 ? -22.1°
Maximum altitude 04:04:11 81° 122° (ESE) 496 ? -21.5°
Drops below altitude 10° 04:07:53 10° 32° (NNE) 1,656 ? -20.9°
Sets 04:10:00 0° 31° (NNE) 2,529 ? -20.5°
